Meridian NAS, MS

12:26 PM CDT on April 26, 2018 (GMT -0500)
Meridian Naval Air Station

Weather History for KNMM - May, 2013

Change the Weather History Date:

Thursday, May 16, 2013

  Actual Average Record
Temperature  
Mean Temperature 69 °F -  
Max Temperature 79 °F 80 °F 91 °F (2017)
Min Temperature 60 °F 59 °F 48 °F (2006)
Cooling Degree Days 4    
Growing Degree Days 19 (Base 50)    
Moisture  
Dew Point 61 °F    
Average Humidity 73    
Maximum Humidity 93    
Minimum Humidity 51    
Precipitation  
Precipitation 0.06 in - - ()
Sea Level Pressure  
Sea Level Pressure 30.04 in    
Wind  
Wind Speed 2 mph (SSE)    
Max Wind Speed 8 mph    
Max Gust Speed -    
Visibility 10 miles    
Events Fog , Rain    
Averages and records for this station are not official NWS values.
T = Trace of Precipitation, MM = Missing Value Source: NWS Daily Summary

Daily Weather History Graph

Daily Weather History Graph

Search for Another Location

Airport or City:

Astronomy

May. 16, 2013 Rise Set
Actual Time 5:54 AM CDT 7:46 PM CDT
Civil Twilight 5:27 AM CDT 8:13 PM CDT
Nautical Twilight 4:55 AM CDT 8:46 PM CDT
Astronomical Twilight 4:20 AM CDT 9:21 PM CDT
Moon 11:22 AM CDT (5/16) 12:12 AM CDT (5/16)
Length of Visible Light 14h 46m
Length of Day
13h 51m
Waxing Crescent, 36% of the Moon is Illuminated
May 16
Waxing Crescent
May 17
First Quarter
May 24
Full
May 31
Last Quarter
Jun 8
New

Hourly Weather History & Observations

Time (CDT) Temp. Dew Point Humidity Pressure Visibility Wind Dir Wind Speed Gust Speed Precip Events Conditions
12:56 AM 70.0 °F 57.9 °F 65% 30.08 in 10.0 mi Calm Calm - N/A   Clear
1:56 AM 69.1 °F 57.0 °F 65% 30.07 in 10.0 mi Calm Calm - N/A   Partly Cloudy
2:56 AM 66.9 °F 55.9 °F 68% 30.05 in 10.0 mi South 3.5 mph - N/A   Clear
3:56 AM 64.0 °F 55.9 °F 75% 30.05 in 10.0 mi Calm Calm - N/A   Clear
4:56 AM 61.0 °F 55.9 °F 83% 30.05 in 10.0 mi South 3.5 mph - N/A   Clear
5:56 AM 60.1 °F 55.0 °F 83% 30.06 in 10.0 mi Calm Calm - N/A   Clear
6:56 AM 61.0 °F 55.9 °F 83% 30.07 in 10.0 mi SE 3.5 mph - N/A   Clear
7:02 AM 60.8 °F 55.4 °F 82% 30.05 in 10.0 mi Calm Calm - N/A   Mostly Cloudy
7:56 AM 64.9 °F 57.9 °F 78% 30.08 in 10.0 mi Calm Calm - 0.00 in Rain Light Rain
8:09 AM 64.4 °F 59.0 °F 83% 30.06 in 10.0 mi Calm Calm - 0.00 in   Mostly Cloudy
8:56 AM 68.0 °F 60.1 °F 76% 30.10 in 10.0 mi SE 3.5 mph - 0.00 in   Mostly Cloudy
9:56 AM 71.1 °F 62.1 °F 73% 30.09 in 10.0 mi Calm Calm - N/A   Mostly Cloudy
10:56 AM 75.0 °F 60.1 °F 60% 30.09 in 10.0 mi South 8.1 mph - N/A   Mostly Cloudy
11:54 AM 78.8 °F 59.0 °F 51% 30.05 in 10.0 mi South 8.1 mph - N/A   Mostly Cloudy
11:56 AM 77.0 °F 59.0 °F 54% 30.08 in 10.0 mi SSW 5.8 mph - N/A   Mostly Cloudy
12:36 PM 75.2 °F 60.8 °F 61% 30.04 in 10.0 mi South 4.6 mph - 0.00 in Rain Light Rain
12:56 PM 75.9 °F 62.1 °F 62% 30.06 in 10.0 mi South 8.1 mph - 0.00 in Rain Light Rain
1:24 PM 75.2 °F 62.6 °F 65% 30.03 in 10.0 mi South 4.6 mph - N/A   Mostly Cloudy
1:56 PM 75.9 °F 61.0 °F 60% 30.04 in 10.0 mi SSE 4.6 mph - N/A   Mostly Cloudy
2:56 PM 78.1 °F 61.0 °F 56% 30.02 in 10.0 mi Variable 3.5 mph - N/A   Mostly Cloudy
3:56 PM 78.1 °F 60.1 °F 54% 30.01 in 10.0 mi Variable 5.8 mph - N/A   Clear
4:56 PM 78.1 °F 61.0 °F 56% 29.99 in 10.0 mi SSE 5.8 mph - N/A   Mostly Cloudy
5:56 PM 75.0 °F 66.9 °F 76% 30.00 in 10.0 mi Calm Calm - 0.00 in Rain Light Rain
6:56 PM 71.1 °F 66.9 °F 87% 29.97 in 9.0 mi SSE 3.5 mph - 0.06 in Rain Light Rain
7:56 PM 70.0 °F 66.9 °F 90% 30.00 in 5.0 mi Calm Calm - 0.00 in   Overcast
8:15 PM 69.8 °F 66.2 °F 88% 29.97 in 4.0 mi Calm Calm - N/A Fog Mostly Cloudy
8:56 PM 69.1 °F 66.0 °F 90% 30.00 in 10.0 mi SE 4.6 mph - N/A   Mostly Cloudy
9:56 PM 68.0 °F 66.0 °F 93% 30.00 in 10.0 mi ESE 4.6 mph - N/A   Mostly Cloudy
10:56 PM 68.0 °F 64.9 °F 90% 30.01 in 10.0 mi SSE 3.5 mph - N/A   Overcast
11:56 PM 68.0 °F 64.0 °F 87% 30.01 in 10.0 mi SSE 4.6 mph - N/A   Mostly Cloudy